Tracking 27188 objects as of 1-Apr-2023
HD Live streaming from Space Station
objects crossing your sky now

STARLINK-4075

Track STARLINK-4075 now!
10-day predictions
STARLINK-4075 is classified as:


NORAD ID: 52670
Int'l Code: 2022-053Q
Perigee: 546.0 km
Apogee: 547.7 km
Inclination: 53.2 °
Period: 95.4 minutes
Semi major axis: 6917 km
RCS: Unknown
Launch date: May 18, 2022
Source: United States (US)
Launch site: AIR FORCE EASTERN TEST RANGE (AFETR)
Your satellite tracking list
Your tracking list is empty




NASA's NSSDC Master Catalog

Two Line Element Set (TLE):
1 52670U 22053Q   23090.85135014  .00007561  00000-0  49246-3 0  9990
2 52670  53.2147 294.8332 0001295  77.7256 282.3881 15.08850792 48500
Source of the keplerian elements: AFSPC